254  
ASUS44 KMEG 230310  
RWRMEG  
MEMPHIS CWA HOURLY WEATHER ROUNDUP  
NATIONAL WEATHER SERVICE MEMPHIS TN  
900 PM CST WED NOV 22 2017  
   
..WEST TENNESSEE
 
 
 
CITY SKY/WX TMP DP RH WIND PRES REMARKS
 
MEMPHIS INTL CLEAR 37 26 64 N8 30.27R WCI 31  
NWS MEMPHIS N/A 35 N/A N/A MISG N/A  
JACKSON CLEAR 32 24 72 N5 30.27R WCI 27  
COVINGTON CLEAR 30 25 80 NW6 30.29R WCI 24  
SOMERVILLE CLEAR 36 25 64 N5 30.25R WCI 32  
BOLIVAR PTCLDY 30 25 80 NW3 30.25S  
LEXINGTON CLEAR 36 23 60 N5 30.25S WCI 32  
SELMER CLEAR 34 25 69 N3 30.23S  
SAVANNAH PTCLDY 34 27 75 CALM 30.23F HAZE  
DYERSBURG CLEAR 32 26 78 CALM 30.30R  
UNION CITY CLEAR 32 23 69 CALM 30.28S  
PARIS CLEAR 32 21 64 N5 30.26R WCI 27  
HUNTINGDON CLEAR 36 23 60 N5 30.26R WCI 32  
 
   
..EASTERN ARKANSAS
 
 
 
CITY SKY/WX TMP DP RH WIND PRES REMARKS
 
JONESBORO CLOUDY 32 26 78 NE3 30.27F  
WEST MEMPHIS CLEAR 34 26 72 NE3 30.27S  
BATESVILLE CLEAR 32 22 66 CALM 30.27S  
NEWPORT CLEAR 32 25 75 E5 30.27F WCI 27  
WALNUT RIDGE N/A 34 24 67 SE3 30.27F  
BLYTHEVILLE CLOUDY 31 25 78 NE6 30.30R WCI 25  
SEARCY CLEAR 31 25 78 CALM 30.27F  
STUTTGART CLEAR 37 25 61 E3 30.27S  
PINE BLUFF CLEAR 35 24 64 CALM 30.28R  
MONTICELLO CLEAR 37 26 64 CALM 30.26F  
 
   
..NORTH MISSISSIPPI
 
 
 
CITY SKY/WX TMP DP RH WIND PRES REMARKS
 
TUPELO CLEAR 34 25 69 N10 30.22F WCI 26  
OXFORD CLEAR 36 23 60 CALM 30.25S  
BATESVILLE CLEAR 34 25 69 CALM 30.26S  
TUNICA N/A N/A N/A N/A N8 30.28S  
CLARKSDALE N/A 37 28 70 N9 30.27S WCI 31  
CORINTH CLEAR 36 25 64 NW5 30.24S WCI 32  
GREENWOOD CLEAR 38 29 70 N7 30.24S WCI 33  
COLUMBUS CLEAR 41 29 63 N7 30.19F  
STARKVILLE CLEAR 39 28 65 N3 30.22S  
GOLDEN TRIANGL CLEAR 38 26 62 N7 30.20F WCI 33  
 
   
..SOUTHEAST MISSOURI
 
 
 
CITY SKY/WX TMP DP RH WIND PRES REMARKS
 
KENNETT CLOUDY 36 25 64 E5 30.27F WCI 32  
MALDEN N/A 34 25 69 E3 30.27F HAZE  
WEST PLAINS PTCLDY 29 17 61 CALM 30.25R  
POPLAR BLUFF CLEAR 28 24 85 SE5 30.25F WCI 23  
CAPE GIRARDEAU CLOUDY 26 23 88 SE5 30.26F WCI 20  
 
   
..NORTHWEST ALABAMA
 
 
 
CITY SKY/WX TMP DP RH WIND PRES REMARKS
 
MUSCLE SHOALS CLEAR 40 24 53 N5 30.23S  
 
   
..MIDDLE TENNESSEE
 
 
 
CITY SKY/WX TMP DP RH WIND PRES REMARKS
 
NASHVILLE CLEAR 38 24 57 N5 30.24F WCI 34  
CLARKSVILLE CLEAR 31 21 66 N8 30.27R WCI 23  
COLUMBIA PTCLDY 32 23 69 CALM 30.21F  
 
   
..WESTERN KENTUCKY
 
 
 
CITY SKY/WX TMP DP RH WIND PRES REMARKS
 
PADUCAH CLOUDY 28 20 71 CALM 30.28S  
FORT CAMPBELL CLEAR 33 22 65 N6 30.26S WCI 27  
 
   
..CENTRAL ARKANSAS
 
 
 
CITY SKY/WX TMP DP RH WIND PRES REMARKS
 
LITTLE ROCK CLEAR 35 26 69 CALM 30.27S  
 
SKY/WX REPORTED AS FAIR MEANS FEW OR NO CLOUDS BELOW  
12 THOUSAND FEET.  
 
 
 
CLICK HERE TO GO TO PREVIOUS BULLETINS.

The Nexlab TN Page
The Nexlab MS Page
The Nexlab AR Page Main Text Page